[[{"header":{"parameterUnit":"m.s-1","parameterCategory":1,"la1":30.2991,"la2":30.254,"lo1":-89.0895,"lo2":-89.0444,"dy":0.0017,"dx":0.0017,"nx":28,"ny":28,"refTime":"2024-04-17T09:00:00:Z","depth":0,"parameterNumber":2,"parameterNumberName":"U-component_of_WINDS"},"data":[0,0,0,0,0,0,0,0,0,0,0,0,0,0,0,0,0,0,0,0,0,0,0,0,0,0,0,0,0,0,0,0,0,0,0,0,0,0,0,0,0,0,0,0,0,0,0,0,0,0,0,0,0,0,0,0,0,0,-2.5245,-2.5244,0,-2.5168,-2.5168,-2.5167,-2.5086,-2.5085,-2.5083,-2.5082,-2.5003,-2.5002,-2.5001,0,0,0,0,0,0,0,0,0,0,0,0,0,-2.532,-2.5319,-2.5245,-2.5244,-2.5243,-2.5169,-2.5168,-2.5166,-2.5086,-2.5085,-2.5083,-2.5082,-2.5003,-2.5002,-2.5001,0,0,0,0,0,0,0,0,0,0,0,0,0,-2.527,-2.5318,-2.5245,-2.5194,-2.5188,-2.5169,-2.5167,-2.5166,-2.5086,-2.5085,-2.5083,-2.5081,-2.5004,-2.5002,-2.5001,-2.5025,0,0,-2.4996,-2.4995,0,0,0,0,0,0,0,0,-2.5273,-2.5267,-2.5202,-2.5197,-2.5191,-2.5135,-2.5165,-2.5119,-2.5087,-2.5125,-2.5082,-2.508,-2.5048,-2.5043,-2.5032,-2.5021,-2.5018,-2.4996,-2.4995,-2.4994,-2.4993,0,0,0,0,0,0,0,-2.5276,-2.527,-2.5214,-2.5201,-2.5195,-2.5174,-2.5165,-2.5156,-2.5097,-2.5121,-2.5115,-2.5108,-2.5045,-2.5034,-2.503,-2.5016,-2.4996,-2.4994,-2.4993,-2.4993,-2.5021,-2.5023,0,0,0,0,0,0,-2.5287,-2.5273,-2.5217,-2.5212,-2.5229,-2.5174,-2.5164,-2.5155,-2.5097,-2.5086,-2.5109,-2.5104,-2.5037,-2.5032,-2.5027,-2.5051,-2.4994,-2.4992,-2.4991,-2.502,-2.5022,-2.5024,0,0,0,0,0,0,-2.5289,-2.5283,-2.522,-2.5241,-2.5231,-2.5175,-2.5165,-2.5154,-2.5143,-2.5088,-2.5077,-2.5109,-2.5036,-2.5029,-2.5026,-2.5047,-2.4992,-2.499,-2.5018,-2.502,-2.5023,-2.51,0,0,0,0,0,0,-2.5292,-2.5284,-2.5293,-2.5242,-2.5231,-2.5221,-2.5166,-2.5154,-2.5141,-2.5133,-2.5084,-2.5075,-2.5034,-2.5029,-2.5024,-2.5044,-2.4989,-2.5016,-2.5019,-2.5022,-2.5095,-2.5105,-2.5113,0,0,0,0,0,-2.5295,-2.5318,-2.5294,-2.5288,-2.524,-2.5222,-2.5216,-2.5169,-2.5143,-2.5151,-2.5115,-2.5076,-2.5046,-2.5029,-2.5023,-2.5043,-2.5014,-2.5018,-2.5022,-2.5091,-2.5103,-2.5113,0,0,0,0,0,0,-2.5372,-2.531,-2.5283,-2.529,-2.5262,-2.5209,-2.5217,-2.5183,-2.5162,-2.5156,-2.5098,-2.5088,-2.5092,-2.5067,-2.505,-2.5063,-2.5024,-2.5027,-2.5079,-2.509,-2.5098,-2.5104,-2.4988,0,0,0,0,0,-2.539,-2.5381,-2.5327,-2.5338,-2.5326,-2.5275,-2.5265,-2.5231,-2.52,-2.5188,-2.5152,-2.5123,-2.5106,-2.5097,-2.5079,-2.5092,-2.5079,-2.5102,-2.5111,-2.5119,-2.5121,-2.5126,-2.5135,-2.5036,-2.5036,-2.5036,0,0,-2.5426,-2.5392,-2.5389,-2.5353,-2.5327,-2.5319,-2.5265,-2.5258,-2.5251,-2.5186,-2.5181,-2.5155,-2.5118,-2.5123,-2.5124,-2.5103,-2.5146,-2.5124,-2.513,-2.5128,-2.5131,-2.5141,-2.5149,-2.5039,-2.5039,-2.5038,0,0,-2.5489,-2.5462,-2.5468,-2.5444,-2.5406,-2.5372,-2.5374,-2.5326,-2.5306,-2.53,-2.5252,-2.5243,-2.5216,-2.5192,-2.5176,-2.5231,-2.5194,-2.5227,-2.5273,-2.5278,-2.5286,-2.5293,-2.5312,-2.5319,-2.523,-2.5231,-2.5231,0,-2.5539,-2.5524,-2.5475,-2.5472,-2.5457,-2.5399,-2.5405,-2.5384,-2.5343,-2.5334,-2.5311,-2.5277,-2.5248,-2.5247,-2.5261,-2.525,-2.525,-2.5232,-2.5289,-2.5295,-2.5301,-2.5318,-2.5325,-2.5235,-2.5234,-2.5234,-2.5233,0,-2.5587,-2.5578,-2.5588,-2.555,-2.5536,-2.5538,-2.5489,-2.5481,-2.545,-2.5418,-2.5413,-2.5377,-2.5351,-2.5348,-2.5317,-2.5343,-2.5331,-2.53,-2.5259,-2.5315,-2.533,-2.5337,-2.5241,-2.5239,-2.5238,-2.5237,0,0,-2.5694,-2.563,-2.5635,-2.5617,-2.5572,-2.5564,-2.5563,-2.5538,-2.5532,-2.5506,-2.5503,-2.5482,-2.5453,-2.5436,-2.5402,-2.5407,-2.5452,-2.5374,-2.5373,-2.5389,-2.5477,-2.55,-2.5509,-2.5428,-2.5429,-2.543,-2.548,0,-2.5748,-2.5742,-2.5699,-2.5705,-2.5696,-2.5642,-2.5641,-2.5613,-2.5584,-2.5572,-2.5539,-2.5526,-2.5489,-2.5478,-2.548,-2.5446,-2.5468,-2.5442,-2.5423,-2.5423,-2.5433,-2.5517,-2.5541,-2.559,-2.5486,-2.5487,-2.5487,0,-2.5809,-2.5787,-2.5793,-2.5749,-2.5743,-2.5743,-2.5717,-2.5706,-2.5674,-2.5652,-2.5634,-2.5595,-2.5591,-2.5554,-2.5547,-2.553,-2.552,-2.5502,-2.5503,-2.5498,-2.5458,-2.5514,-2.5605,-2.5612,-2.5497,-2.5496,-2.5495,0,-2.5885,-2.5858,-2.5858,-2.5844,-2.5793,-2.5794,-2.5772,-2.5738,-2.5726,-2.5704,-2.5695,-2.5672,-2.5659,-2.5642,-2.5599,-2.5576,-2.5596,-2.5556,-2.5578,-2.5579,-2.5583,-2.5583,-2.5673,-2.5579,-2.5579,-2.5579,-2.5579,0,-2.5949,-2.5955,-2.5891,-2.5891,-2.5896,-2.5847,-2.5853,-2.5826,-2.5797,-2.579,-2.5742,-2.5737,-2.568,-2.5669,-2.5635,-2.5634,-2.5629,-2.5611,-2.5601,-2.5614,-2.5616,-2.5606,-2.5601,-2.5581,-2.558,-2.558,-2.558,0,-2.6034,-2.5992,-2.5989,-2.5941,-2.5929,-2.5935,-2.5893,-2.5891,-2.586,-2.5852,-2.5847,-2.5798,-2.5782,-2.5737,-2.571,-2.5687,-2.5695,-2.5679,-2.5706,-2.57,-2.5724,-2.5722,-2.5809,-2.5818,-2.572,-2.5721,-2.5722,0,-2.6077,-2.608,-2.6033,-2.6025,-2.6006,-2.5995,-2.5983,-2.5934,-2.5923,-2.5887,-2.589,-2.587,-2.5852,-2.5829,-2.579,-2.5769,-2.5751,-2.5783,-2.5747,-2.576,-2.575,-2.575,-2.575,-2.579,-2.5791,-2.5793,-2.5793,0,-2.6157,-2.6136,-2.6121,-2.6098,-2.6085,-2.6065,-2.6042,-2.6039,-2.5985,-2.5975,-2.5958,-2.5944,-2.5917,-2.5898,-2.5871,-2.5848,-2.5812,-2.5805,-2.5809,-2.5822,-2.5837,-2.5828,-2.5726,-2.5803,-2.5802,-2.5801,-2.5801,-2.58,-2.6221,-2.6222,-2.6189,-2.6173,-2.6151,-2.6131,-2.6127,-2.6095,-2.6081,-2.6055,-2.6028,-2.6014,-2.5982,-2.5942,-2.5922,-2.5911,-2.5891,-2.5897,-2.5898,-2.59,-2.5906,-2.5841,-2.5906,-2.5905,-2.5905,-2.5905,-2.5905,0,-2.6298,-2.6275,-2.6261,-2.6231,-2.6219,-2.6187,-2.616,-2.6152,-2.6141,-2.6114,-2.6098,-2.6079,-2.6061,-2.6021,-2.5999,-2.5997,-2.598,-2.5993,-2.5992,-2.5987,-2.5925,-2.5923,-2.6008,-2.6008,-2.6008,-2.6007,-2.6007,-2.6007,-2.6337,-2.6336,-2.6312,-2.6299,-2.6275,-2.6262,-2.625,-2.6231,-2.6209,-2.6191,-2.6176,-2.615,-2.6119,-2.6094,-2.6076,-2.6065,-2.6058,-2.6077,-2.606,-2.6002,-2.5992,-2.5983,-2.5981,-2.6076,-2.6076,-2.6123,-2.6124,-2.6124]},{"header":{"parameterUnit":"m.s-1","parameterCategory":1,"la1":30.2991,"la2":30.254,"lo1":-89.0895,"lo2":-89.0444,"dy":0.0017,"dx":0.0017,"nx":28,"ny":28,"refTime":"2024-04-17T09:00:00:Z","depth":0,"parameterNumber":3,"parameterNumberName":"V-component_of_WINDS"},"data":[0,0,0,0,0,0,0,0,0,0,0,0,0,0,0,0,0,0,0,0,0,0,0,0,0,0,0,0,0,0,0,0,0,0,0,0,0,0,0,0,0,0,0,0,0,0,0,0,0,0,0,0,0,0,0,0,0,0,1.9399,1.94,0,1.9465,1.9466,1.9467,1.9523,1.9524,1.9524,1.9525,1.9593,1.9594,1.9595,0,0,0,0,0,0,0,0,0,0,0,0,0,1.9322,1.9324,1.9399,1.94,1.9401,1.9465,1.9466,1.9467,1.9523,1.9524,1.9524,1.9525,1.9593,1.9594,1.9596,0,0,0,0,0,0,0,0,0,0,0,0,0,1.9369,1.9324,1.9399,1.9436,1.944,1.9465,1.9466,1.9467,1.9523,1.9524,1.9524,1.9525,1.9592,1.9594,1.9596,1.9589,0,0,1.9601,1.9602,0,0,0,0,0,0,0,0,1.9366,1.9372,1.943,1.9434,1.9438,1.9487,1.9464,1.9508,1.9522,1.9491,1.9525,1.9526,1.9557,1.9562,1.9572,1.9592,1.9595,1.9602,1.9603,1.9604,1.9604,0,0,0,0,0,0,0,1.9363,1.9369,1.9425,1.9431,1.9436,1.945,1.9458,1.9473,1.9518,1.9494,1.9498,1.9505,1.9559,1.957,1.9574,1.9596,1.9602,1.9603,1.9604,1.9605,1.9615,1.9615,0,0,0,0,0,0,1.9354,1.9366,1.9423,1.9427,1.9404,1.9451,1.9459,1.947,1.9518,1.9526,1.9505,1.9508,1.9567,1.9572,1.9577,1.9573,1.9604,1.9605,1.9606,1.9616,1.9615,1.9614,0,0,0,0,0,0,1.9352,1.9358,1.942,1.9398,1.9407,1.9451,1.9463,1.9471,1.9482,1.9526,1.9535,1.9507,1.9568,1.9574,1.9586,1.9576,1.9606,1.9608,1.9617,1.9616,1.9615,1.9565,0,0,0,0,0,0,1.9349,1.9357,1.9355,1.9397,1.9408,1.9428,1.9462,1.9472,1.9485,1.949,1.9531,1.9538,1.9569,1.9583,1.9588,1.9579,1.9609,1.9618,1.9617,1.9615,1.9568,1.9562,1.9557,0,0,0,0,0,1.9346,1.9338,1.9354,1.9361,1.9405,1.9427,1.9433,1.9468,1.9484,1.9482,1.9511,1.9537,1.9576,1.9583,1.9589,1.9582,1.9619,1.9617,1.9615,1.957,1.9563,1.9558,0,0,0,0,0,0,1.9292,1.9344,1.9363,1.9367,1.9392,1.9436,1.9435,1.946,1.9481,1.9484,1.9527,1.9536,1.9543,1.9564,1.957,1.9578,1.9601,1.9601,1.9565,1.9559,1.9554,1.9549,1.9611,0,0,0,0,0,1.9281,1.9294,1.9338,1.9338,1.935,1.939,1.9401,1.9426,1.9453,1.9464,1.9494,1.952,1.9539,1.955,1.9569,1.9571,1.9581,1.9568,1.9563,1.9559,1.9558,1.9562,1.9557,1.9608,1.9608,1.9608,0,0,1.9258,1.9287,1.9293,1.9328,1.935,1.9364,1.9399,1.9411,1.9421,1.9466,1.948,1.9502,1.9534,1.9541,1.9546,1.9558,1.9546,1.9556,1.9553,1.9554,1.956,1.9555,1.9551,1.9607,1.9607,1.9607,0,0,1.9222,1.9245,1.9248,1.927,1.9304,1.9331,1.9332,1.9372,1.9389,1.9403,1.9438,1.9451,1.9481,1.9503,1.9518,1.9492,1.9518,1.9497,1.9471,1.9474,1.947,1.9467,1.9459,1.9456,1.9496,1.9496,1.9496,0,1.9189,1.921,1.9247,1.9258,1.9273,1.9314,1.9318,1.9338,1.9376,1.9386,1.9399,1.9439,1.9464,1.9477,1.9471,1.9482,1.9485,1.9493,1.9468,1.9465,1.9463,1.9456,1.9452,1.9493,1.9494,1.9494,1.9494,0,1.9168,1.9182,1.9181,1.9217,1.9232,1.9239,1.9278,1.9289,1.9312,1.9338,1.9353,1.9383,1.9411,1.9415,1.9438,1.9433,1.944,1.946,1.9484,1.9454,1.9449,1.9446,1.949,1.9491,1.9491,1.9492,0,0,1.91,1.9157,1.9156,1.9174,1.9215,1.9226,1.9236,1.9263,1.9272,1.9297,1.9307,1.9332,1.9351,1.9368,1.9394,1.9397,1.9377,1.9418,1.9419,1.941,1.9374,1.9359,1.9355,1.9394,1.9393,1.9393,1.9372,0,1.9072,1.9091,1.9126,1.9134,1.9149,1.9189,1.9198,1.9224,1.9248,1.9265,1.9292,1.931,1.9333,1.9344,1.9349,1.9378,1.937,1.938,1.9404,1.9405,1.9396,1.9352,1.9336,1.9315,1.937,1.9369,1.9369,0,1.9041,1.9065,1.9075,1.9116,1.9123,1.913,1.9158,1.9173,1.9204,1.9222,1.9241,1.927,1.9283,1.9305,1.9324,1.933,1.9342,1.9358,1.9358,1.9363,1.9386,1.9356,1.9309,1.9306,1.9365,1.9366,1.9366,0,1.8992,1.9026,1.9037,1.9051,1.9099,1.9103,1.9123,1.9155,1.9169,1.9194,1.9204,1.9229,1.9243,1.9263,1.9298,1.931,1.9314,1.9338,1.933,1.9329,1.933,1.9329,1.9284,1.9335,1.9335,1.9335,1.9336,0,1.8958,1.8963,1.9016,1.9023,1.903,1.907,1.9076,1.91,1.9128,1.9141,1.9177,1.9188,1.9234,1.925,1.9278,1.9291,1.9297,1.9312,1.932,1.931,1.9308,1.9319,1.9322,1.9335,1.9335,1.9335,1.9335,0,1.8905,1.894,1.8955,1.8999,1.9011,1.9014,1.9053,1.9061,1.9088,1.9104,1.911,1.9152,1.9174,1.9211,1.9243,1.9262,1.927,1.9282,1.926,1.9264,1.9255,1.9256,1.9216,1.9214,1.9265,1.9264,1.9264,0,1.8881,1.8886,1.8931,1.8942,1.8961,1.8978,1.8994,1.9033,1.9047,1.9084,1.9088,1.9113,1.9135,1.9168,1.9202,1.9227,1.9241,1.9225,1.9245,1.9235,1.9242,1.9242,1.9244,1.9221,1.922,1.922,1.9219,0,1.8835,1.8853,1.8873,1.89,1.8917,1.894,1.8964,1.8972,1.9017,1.9031,1.9054,1.9071,1.9105,1.9129,1.9159,1.9181,1.9208,1.9213,1.9213,1.9203,1.919,1.9198,1.9249,1.9214,1.9214,1.9215,1.9215,1.9215,1.8797,1.8804,1.8837,1.8859,1.8882,1.8904,1.8915,1.8944,1.8964,1.8994,1.9016,1.9038,1.907,1.9114,1.9134,1.9152,1.9164,1.9163,1.9163,1.9163,1.916,1.9186,1.9157,1.9158,1.9158,1.9158,1.9158,0,1.8755,1.8778,1.8798,1.8832,1.8849,1.8873,1.8902,1.8915,1.8933,1.8961,1.8982,1.9009,1.9034,1.907,1.9097,1.9105,1.9118,1.9111,1.9111,1.9116,1.9147,1.9145,1.91,1.91,1.91,1.91,1.91,1.91,1.8735,1.8748,1.877,1.8796,1.8819,1.8841,1.8856,1.8877,1.89,1.8928,1.8949,1.8972,1.9004,1.9034,1.9058,1.9068,1.9077,1.9066,1.908,1.9108,1.9113,1.9119,1.9117,1.9067,1.9067,1.9048,1.9048,1.9048]}]]